Home > Weather > Winnipeg > Past weeks

Flag for Canada Past Weather in Winnipeg, Manitoba, Canada — Yesterday and Last 2 Weeks

Now
65 °F

Mild.


Feels Like: 65 °F
Forecast: 51 / 75 °F
Wind: 5 mph from North

Location: Winnipeg The Forks Man

Current Time: May 29, 2016 at 10:10:12 PM

Latest Report: May 29, 2016 at 9:00 PM


Visibility: N/A

Pressure: 29.88 "Hg

Humidity: 58%

Dew Point: 50 °F

Location of WinnipegLocation

Past Weather in Winnipeg — Graph

°F

Winnipeg Temperature Yesterday

Maximum temperature yesterday: 68 °F (at 6:00 PM)
Minimum temperature yesterday: 57 °F (at 2:00 AM)
Average temperature yesterday: 61 °F

High & Low Weather Summary for the Past Weeks

 TemperatureHumidityPressure
High82 °F (May 21, 5:00 PM)96% (May 26, 5:00 AM)30.37 "Hg (May 26, 5:00 AM)
Low39 °F (May 16, 6:00 AM)18% (May 18, 7:00 PM)29.45 "Hg (May 23, 4:00 AM)
Average62 °F56%29.91 "Hg
* Reported May 14 9:00 PM — May 29 9:00 PM, Winnipeg, Weather by CustomWeather, © 2016

Note: Actual official high and low records may vary slightly from our data, if they occured in-between our weather recording intervals... More about our weather records

Advertising

Winnipeg Weather History for the Previous 24 Hours

Scroll right to see more
 ConditionsComfort  
Time TempWeatherWind HumidityBarometerVisibility
9:00 PM
Sun, May 29
65 °FMild.5 mph58%29.88 "HgN/A
8:00 PM68 °FMild.6 mph53%29.88 "HgN/A
7:00 PM69 °FMild.6 mph50%29.88 "HgN/A
6:00 PM69 °FMild.5 mph43%29.88 "HgN/A
5:00 PM69 °FMild.5 mph53%29.88 "HgN/A
4:00 PM67 °FMild.5 mph57%29.89 "HgN/A
3:00 PM67 °FMild.6 mph59%29.89 "HgN/A
2:00 PM65 °FMild.5 mph64%29.89 "HgN/A
1:00 PM64 °FMild.3 mph67%29.89 "HgN/A
12:00 PM62 °FCool.6 mph73%29.90 "HgN/A
11:00 AM62 °FMild.5 mph73%29.89 "HgN/A
10:00 AM61 °FCool.2 mph79%29.90 "HgN/A
9:00 AM56 °FCool.5 mph87%29.90 "HgN/A
8:00 AM56 °FCool.3 mph88%29.90 "HgN/A
7:00 AM55 °FCool.2 mph91%29.89 "HgN/A
6:00 AM55 °FCool.3 mph91%29.90 "HgN/A
5:00 AM55 °FCool.3 mph90%29.89 "HgN/A
4:00 AM56 °FCool.5 mph90%29.89 "HgN/A
3:00 AM56 °FCool.2 mph88%29.89 "HgN/A
2:00 AM56 °FCool.3 mph88%29.90 "HgN/A
1:00 AM58 °FCool.3 mph82%29.90 "HgN/A
12:00 AM58 °FCool.5 mph82%29.90 "HgN/A
11:00 PM
Sat, May 28
58 °FCool.3 mph82%29.92 "HgN/A
10:00 PM59 °FCool.5 mph79%29.90 "HgN/A
Weather by CustomWeather, © 2016

See weather overviewHow to use our weather pages